Weather History for Dalhart, TX

Change the Weather History Date:

Thursday, August 22, 2013

  Actual Average Record
Temperature  
Mean Temperature 76 °F 75 °F  
Max Temperature 94 °F 89 °F 99 °F (2011)
Min Temperature 58 °F 61 °F 53 °F (1979)
Degree Days  
Heating Degree Days 0 0  
Month to date heating degree days 0 0  
Since 1 June heating degree days 0 13  
Since 1 July heating degree days 0 1  
Cooling Degree Days 11 10  
Month to date cooling degree days 263 237  
Year to date cooling degree days 1226 914  
Since 1 June cooling degree days 1072 842  
Growing Degree Days 25 (Base 50)    
Moisture  
Dew Point 49 °F    
Average Humidity 50    
Maximum Humidity 80    
Minimum Humidity 19    
Precipitation  
Precipitation 0.00 in 0.08 in 0.64 in (1984)
Month to date precipitation 1.56 2.20  
Year to date precipitation 5.02 12.70  
Snow  
Snow 0.00 in 0.00 in 0.00 in ()
Month to date snowfall 0.0 0.0  
Since 1 June snowfall 0.0 0.0  
Since 1 July snowfall 0.0 0.0  
Snow Depth 0.00 in    
Sea Level Pressure  
Sea Level Pressure 29.95 in    
Wind  
Wind Speed 9 mph (SSW)    
Max Wind Speed 17 mph    
Max Gust Speed 20 mph    
Visibility 10 miles    
Events      
T = Trace of Precipitation, MM = Missing Value Source: NWS Daily Summary

Daily Weather History Graph

Daily Weather History Graph

Search for Another Location

Airport:

Trip Planner

Search our weather history database for the weather conditions in past years. The results will help you decide how hot, cold, wet, or windy it might be!

Date:

Astronomy

Aug. 22, 2013 Rise Set
Actual Time 7:14 AM CDT 8:30 PM CDT
Civil Twilight 6:47 AM CDT 8:57 PM CDT
Nautical Twilight 6:15 AM CDT 9:29 PM CDT
Astronomical Twilight 5:42 AM CDT 10:02 PM CDT
Moon 9:22 PM CDT (8/22) 9:00 AM CDT (8/22)
Length of Visible Light 14h 10m
Length of Day
13h 16m
Waning Gibbous, 96% of the Moon is Illuminated
Aug 22
Waning Gibbous
Aug 28
Last Quarter
Sep 5
New
Sep 12
First Quarter
Sep 19
Full

Hourly Weather History & Observations

Time (CDT) Temp. Dew Point Humidity Pressure Visibility Wind Dir Wind Speed Gust Speed Precip Events Conditions
12:53 AM 70.0 °F 52.0 °F 53% 29.98 in 10.0 mi South 9.2 mph - N/A   Clear
1:53 AM 69.1 °F 52.0 °F 54% 29.97 in 10.0 mi SSW 11.5 mph - N/A   Clear
2:53 AM 64.9 °F 53.1 °F 65% 29.97 in 10.0 mi SSW 8.1 mph - N/A   Clear
3:53 AM 62.1 °F 53.1 °F 72% 29.99 in 10.0 mi WSW 6.9 mph - N/A   Clear
4:53 AM 63.0 °F 53.1 °F 70% 29.98 in 10.0 mi SW 5.8 mph - N/A   Clear
5:53 AM 61.0 °F 53.1 °F 75% 29.98 in 10.0 mi SSW 5.8 mph - N/A   Clear
6:53 AM 57.9 °F 52.0 °F 81% 29.99 in 10.0 mi SSW 4.6 mph - N/A   Clear
7:53 AM 59.0 °F 53.1 °F 81% 30.00 in 10.0 mi West 5.8 mph - N/A   Clear
8:53 AM 64.0 °F 55.0 °F 73% 30.01 in 6.0 mi SW 5.8 mph - N/A   Haze
9:53 AM 75.0 °F 55.0 °F 50% 29.99 in 10.0 mi SW 8.1 mph - N/A   Clear
10:53 AM 82.0 °F 52.0 °F 35% 29.98 in 7.0 mi WSW 10.4 mph - N/A   Clear
11:53 AM 87.1 °F 52.0 °F 30% 29.98 in 10.0 mi SW 10.4 mph 17.3 mph N/A   Clear
12:53 PM 90.0 °F 51.1 °F 26% 29.96 in 10.0 mi SSW 11.5 mph 19.6 mph N/A   Clear
1:53 PM 91.0 °F 48.9 °F 23% 29.94 in 10.0 mi South 8.1 mph 17.3 mph N/A   Clear
2:53 PM 93.0 °F 46.0 °F 20% 29.92 in 10.0 mi SSE 6.9 mph - N/A   Clear
3:53 PM 93.0 °F 46.0 °F 20% 29.92 in 10.0 mi South 9.2 mph 16.1 mph N/A   Clear
4:53 PM 93.9 °F 44.1 °F 18% 29.89 in 10.0 mi SE 8.1 mph - N/A   Clear
5:53 PM 93.9 °F 44.1 °F 18% 29.87 in 10.0 mi SSE 12.7 mph - N/A   Clear
6:53 PM 91.9 °F 44.1 °F 19% 29.88 in 10.0 mi SSE 6.9 mph - N/A   Clear
7:53 PM 89.1 °F 43.0 °F 20% 29.89 in 10.0 mi SSE 12.7 mph - N/A   Clear
8:53 PM 80.1 °F 45.0 °F 29% 29.91 in 10.0 mi SSE 8.1 mph - N/A   Clear
9:53 PM 80.1 °F 43.0 °F 27% 29.90 in 10.0 mi South 11.5 mph - N/A   Clear
10:53 PM 75.0 °F 42.1 °F 31% 29.92 in 10.0 mi South 9.2 mph - N/A   Clear
11:53 PM 72.0 °F 42.1 °F 34% 29.94 in 10.0 mi South 8.1 mph - N/A   Clear